User: anonymous   Login
Location: Unspecified
(0.0000°N, 0.0000°E)
Time: 17:57:46
(UTC+01:00)
Language:

ARIANE 5 R/B - Orbit

View from above orbital plane
View from above orbital plane
View from above satellite
View from above satellite

Ground track
Ground track

The orbit data is extracted from the following two-line orbital elements,

1 28886U 05041C   17018.85393377 -.00000060  00000-0  12566-3 0  9994
2 28886   8.0962  56.9548 7182128 349.2569 350.9436  2.24331985 92382
Epoch (UTC): 18 January 2017 20:29:39
Eccentricity: 0.7182128
inclination: 8.0962°
perigee height: 568 km
apogee height: 35974 km
right ascension of ascending node: 56.9548°
argument of perigee: 349.2569°
revolutions per day: 2.24331985
mean anomaly at epoch: 350.9436°
orbit number at epoch: 9238

The dashed part of the orbit path shows where the satellite is in the earth's shadow,  

DLR